Regional Weather Roundup
Issued by NWS Newport/Morehead, NC

Current Version | Previous Version | Text Only | Print | Product List | Glossary On
Versions: 1 2 3 4 5 6 7 8 9 10 11 12 13 14 15 16 17 18 19 20 21 22 23 24 25 26 27 28 29 30 31 32 33 34 35 36 37 38 39 40 41 42 43 44 45 46 47 48 49 50
000
ASUS42 KMHX 310622
RWRMHX
WEATHER ROUNDUP FOR EASTERN NORTH CAROLINA
NATIONAL WEATHER SERVICE NEWPORT/MOREHEAD CITY NC
200 AM EDT THU JUL 31 2014

NOTE: "FAIR" INDICATES FEW OR NO CLOUDS BELOW 12,000 FEET
WITH NO SIGNIFICANT WEATHER AND/OR OBSTRUCTIONS TO VISIBILITY

NCZ015>017-031-032-045>047-102-103-310700-
NORTH COAST

CITY           SKY/WX    TMP DP  RH WIND       PRES   REMARKS
EDENTON        MOCLDY    71  64  78 SE6       30.08S
ELIZABETH CITY PTCLDY    71  61  70 CALM      30.09S
KITTY HAWK     PTCLDY    72  61  68 SE5       30.07F
MANTEO         NOT AVBL

$$

NCZ045>047-081-094-103-104-310700-
CENTRAL COAST

CITY           SKY/WX    TMP DP  RH WIND       PRES   REMARKS
FRISCO         CLOUDY    73  65  75 NE6       30.08F
SWANQUARTER      N/A     68 N/A N/A NE3       30.06S

$$

NCZ095-097-098-100-101-310700-
SOUTHERN COAST

CITY           SKY/WX    TMP DP  RH WIND       PRES   REMARKS
BEAUFORT       PTCLDY    73  68  84 NE3       30.07F
CEDAR ISLAND     N/A     77 N/A N/A E13       30.12S
JACKSONVILLE   PTCLDY    73  68  84 E7        30.06F
NEWPORT        NOT AVBL
PINEY ISLAND   MOCLDY    78  69  73 E8        30.07F
WILMINGTON     CLEAR     72  69  90 CALM      30.05F


$$

NCZ011>013-027>030-043-044-078>080-089-090>093-098-310700-
COASTAL PLAIN

CITY           SKY/WX    TMP DP  RH WIND       PRES   REMARKS
AHOSKIE        PTCLDY    65  62  89 CALM      30.09S
CLINTON        MOCLDY    71  68  90 CALM      30.08S
ELIZABETHTOWN  MOCLDY    70  67  90 CALM      30.07S
GOLDSBORO      CLOUDY    69  69  98 CALM      30.07S
GREENVILLE     CLOUDY    70  64  83 CALM      30.10S
HAVELOCK       MOCLDY    70  66  87 CALM      30.08F
KENANSVILLE    MOCLDY    67  65  94 CALM      30.08F
KINSTON        CLOUDY    70  65  84 CALM      30.09R
NEW BERN       CLOUDY    70  66  87 CALM      30.08F
RICHLANDS      MOCLDY    66  63  88 CALM      30.07F
ROANOKE RAPIDS NOT AVBL
ROCKY MOUNT    MOCLDY    68  64  87 CALM      30.08F
WASHINGTON     CLOUDY    67  63  86 CALM      30.09R
WHITEVILLE     PTCLDY    70  67  89 CALM      30.06S

$$

AMZ130-135-150-152-154-156-158-170-250-252-270-ANZ085-086-088-633-658-670-310700-
MARINE OBSERVATIONS

STATION/POSITION TIME  TEMP    WIND        PRES    WAVE   SWELL
                       AIR SEA DIR/SP/G            HT/PER HT/PER
                 (UTC) (F)     (DEG/KT/KT) (MB)    (FT/S) (FT/S)
CHESAPEAKE LIGHT NOT AVBL
BUOY 44014       0600   75 78  130/  8/ 10 1018.6    2/ 8   2/ 8
DUCK             0600   74 76  140/ 11/ 12 1017.9
2E DUCK          0600                        N/A     2/ 7
OREGON INLET     0600   74 80  100/  6/ 10 1018.6
BUOY 44095       0600      78                N/A     3/ 8
20E OREGON INLET NOT AVBL
HATTERAS CG      0600   74 80   70/  4/  6 1018.9
DIAMOND BUOY     0600          VRB  8/ 10  1018.2    4/ 7   3/ 7
CAPE LOOKOUT     0600   79      90/ 11/ 12 1017.9
BEAUFORT LAB     0600   73 82   30/  3/  5 1017.6
30 SE NEW RIVER  0600   80 81   80/ 12/ 14 1018.0    3/ 6   2/ 6
5 SE WRIGHTSVILL 0500   77 81  100/ 14/ 16   N/A
BUOY 41002       0505   79 80   30/  4/  4 1016.9    4/ 6   3/ 6
BUOY 41004       0600   82 83   90/ 14/ 16 1015.5    4/ 6   2/ 8

$$


USA.gov is the U.S. government's official web portal to all federal, state and local government web resources and services.